Hazard, Kentucky, United States (41701)
Lat: 37.25N, Lon: 83.19W
Wx Zone: KYZ115
Local Info
Past Weather Observations for Monday, September 29, 2014

NOTE: This archive is for the closest National Weather Service station to Hazard. Information may differ from the station used for current weather conditions.

Click here for Long-term Archive

Time Weather Temperature Dewpoint Humidity Pressure Winds Precip Visibility
23:53
Clear
64°F / 18°C 61°F / 16°C 88% 29.98 in
(1015 mb)
Calm - 10SM
22:53
Clear
64°F / 18°C 63°F / 17°C 94% 29.98 in
(1015 mb)
Calm - 10SM
21:53
Clear
66°F / 19°C 63°F / 17°C 88% 29.98 in
(1015 mb)
Calm - 10SM
20:53
Clear
68°F / 20°C 63°F / 17°C 83% 29.98 in
(1015 mb)
Calm - 10SM
19:53
Clear
70°F / 21°C 61°F / 16°C 73% 29.98 in
(1015 mb)
S 3.5 mph
(S 6 kph)
- 10SM
18:53
Clear
73°F / 23°C 61°F / 16°C 65% 29.98 in
(1015 mb)
Calm - 10SM
17:53
Clear
73°F / 23°C 63°F / 17°C 69% 29.98 in
(1015 mb)
Calm - 10SM
16:53
Clear
75°F / 24°C 63°F / 17°C 65% 29.98 in
(1015 mb)
Calm - 10SM
15:53
Overcast
75°F / 24°C 63°F / 17°C 65% 29.98 in
(1015 mb)
Calm - 10SM
14:53
Overcast
79°F / 26°C 61°F / 16°C 54% 29.98 in
(1015 mb)
W 5.8 mph
(W 9 kph)
- 10SM
13:53
Mostly Cloudy
79°F / 26°C 61°F / 16°C 54% 30.01 in
(1016 mb)
Variable 4.6 mph
(Variable 7 kph)
- 10SM
12:53
Partly Cloudy
73°F / 23°C 61°F / 16°C 65% 30.04 in
(1017 mb)
Calm - 10SM
12:42
Partly Cloudy
73°F / 23°C 63°F / 17°C 69% 30.04 in
(1017 mb)
Calm - 10SM
12:15
Mostly Cloudy
73°F / 23°C 63°F / 17°C 69% 30.04 in
(1017 mb)
Calm - 10SM
11:53
Mostly Cloudy
73°F / 23°C 61°F / 16°C 65% 30.04 in
(1017 mb)
Calm - 10SM
10:53
Clear
73°F / 23°C 63°F / 17°C 69% 30.06 in
(1018 mb)
Calm - 10SM
09:53
Clear
70°F / 21°C 63°F / 17°C 78% 30.06 in
(1018 mb)
Calm - 10SM
08:53
Clear
66°F / 19°C 63°F / 17°C 88% 30.06 in
(1018 mb)
Calm - 10SM
07:53
Partly Cloudy
63°F / 17°C 63°F / 17°C 100% 30.06 in
(1018 mb)
Calm - 9SM
07:44
Partly Cloudy
Fog And Mist
63°F / 17°C 63°F / 17°C 100% 30.06 in
(1018 mb)
Calm - 5SM
07:32
Mostly Cloudy
Fog And Mist
61°F / 16°C 61°F / 16°C 100% 30.06 in
(1018 mb)
Calm - 3SM
07:28
Mostly Cloudy
Fog And Mist
61°F / 16°C 61°F / 16°C 100% 30.06 in
(1018 mb)
Calm - 2SM
06:53
Mostly Cloudy
Fog
61°F / 16°C 61°F / 16°C 100% 30.06 in
(1018 mb)
Calm - 1/4SM
06:49
Mostly Cloudy
Fog And Mist
61°F / 16°C 61°F / 16°C 100% 30.06 in
(1018 mb)
Calm - 3/4SM
06:40
Overcast
Fog And Mist
61°F / 16°C 59°F / 15°C 94% 30.06 in
(1018 mb)
Calm - 2SM
06:38
Overcast
Fog And Mist
61°F / 16°C 61°F / 16°C 100% 30.06 in
(1018 mb)
Calm - 1 1/2SM
05:53
Obscured
Fog
61°F / 16°C 61°F / 16°C 100% 30.06 in
(1018 mb)
Calm - 1/4SM
05:45
Obscured
Fog And Mist
63°F / 17°C 61°F / 16°C 94% 30.06 in
(1018 mb)
Calm - 3/4SM
05:43
Partly Cloudy
Fog And Mist
63°F / 17°C 61°F / 16°C 94% 30.06 in
(1018 mb)
Calm - 1 3/4SM
05:39
Clear
Fog And Mist
63°F / 17°C 61°F / 16°C 94% 30.06 in
(1018 mb)
Calm - 3SM
05:37
Clear
Fog And Mist
63°F / 17°C 61°F / 16°C 94% 30.06 in
(1018 mb)
Calm - 1 1/2SM
05:31
Obscured
Fog And Mist
63°F / 17°C 59°F / 15°C 88% 30.06 in
(1018 mb)
Calm - 3/4SM
05:27
Partly Cloudy
Fog And Mist
63°F / 17°C 59°F / 15°C 88% 30.06 in
(1018 mb)
Calm - 1 1/2SM
05:25
Partly Cloudy
Fog And Mist
63°F / 17°C 61°F / 16°C 94% 30.06 in
(1018 mb)
Calm - 4SM
05:17
Partly Cloudy
Fog And Mist
63°F / 17°C 61°F / 16°C 94% 30.06 in
(1018 mb)
Calm - 2SM
05:14
Obscured
Fog And Mist
61°F / 16°C 59°F / 15°C 94% 30.06 in
(1018 mb)
Calm - 1SM
05:07
Partly Cloudy
Fog And Mist
61°F / 16°C 59°F / 15°C 94% 30.06 in
(1018 mb)
Calm - 1 1/4SM
05:05
Partly Cloudy
Fog And Mist
63°F / 17°C 61°F / 16°C 94% 30.06 in
(1018 mb)
Calm - 2 1/2SM
04:53
Clear
Fog And Mist
63°F / 17°C 61°F / 16°C 94% 30.06 in
(1018 mb)
Calm - 5SM
03:53
Partly Cloudy
Fog And Mist
63°F / 17°C 61°F / 16°C 94% 30.06 in
(1018 mb)
Calm - 6SM
03:48
Partly Cloudy
Fog And Mist
63°F / 17°C 61°F / 16°C 94% 30.06 in
(1018 mb)
Calm - 3SM
03:46
Partly Cloudy
Fog And Mist
63°F / 17°C 61°F / 16°C 94% 30.06 in
(1018 mb)
Calm - 1 3/4SM
03:38
Mostly Cloudy
Fog And Mist
63°F / 17°C 61°F / 16°C 94% 30.06 in
(1018 mb)
Calm - 1 1/4SM
03:36
Mostly Cloudy
Fog And Mist
63°F / 17°C 61°F / 16°C 94% 30.06 in
(1018 mb)
Calm - 2SM
03:24
Partly Cloudy
Fog And Mist
63°F / 17°C 61°F / 16°C 94% 30.06 in
(1018 mb)
Calm - 3SM
03:20
Partly Cloudy
Fog And Mist
63°F / 17°C 61°F / 16°C 94% 30.06 in
(1018 mb)
Calm - 1 3/4SM
02:53
Partly Cloudy
63°F / 17°C 61°F / 16°C 94% 30.06 in
(1018 mb)
Calm - 7SM
02:05
Partly Cloudy
63°F / 17°C 61°F / 16°C 94% 30.06 in
(1018 mb)
Calm - 8SM
01:53
Clear
64°F / 18°C 61°F / 16°C 88% 30.06 in
(1018 mb)
Calm - 10SM
00:53
Clear
64°F / 18°C 63°F / 17°C 94% 30.09 in
(1019 mb)
Calm - 10SM
Time Weather Temperature Dewpoint Humidity Pressure Winds Precip Visibility


Weather for websites

WeatherForYou.com, LLC is not responsible for any damages or problems caused by this service. Current weather conditions are obtained from the closest station including government and personal stations which may have varying degrees of accuracy. Weather forecasts are derived from the NOAA NDFD. Like all things, this site belongs to Jesus Christ... He just trusts me to maintain it. If you have any questions or comments email webmaster@weatherforyou.com

Copyright © 2014, WeatherForYou.com LLC. All rights reserved.